FIN5TP EFHK-OTHH

Flight info

Callsign FIN5TP
Flight time N/A
Altitude 40000
Route KOIVU Y123 LARTI DCT LUTAL P870 BERIL/N0481F390 DCT BOKSU/N0479F400 M985 SUWGI M857 OBOSO/N0479F390 DCT ROBTU DCT ROMKA DCT KARIL/N0482F410 DCT VIBUD DCT EKSUN DCT IVGOT Q7 ARTAT UP975 ERGUN UL124 EVSAS UM688 RATVO M688 SIDAD P975 LONOS L703 HAYYA
Aircraft A359/H-SDE2E3GHIJ3J4J5LM1ORWXY/LB1D1

Departure

Time N/A
Airport Helsinki Vantaa Airport (EFHK)

Arrival

Time 2026-05-04 19:17
Airport Hamad International Airport (OTHH)
Time Latitude Longitude Altitude Speed Heading
2026-05-04 19:09 25.15180 51.77116 10018 ft 372 kts 159°
2026-05-04 19:09 25.12758 51.78185 9300 ft 370 kts 159°
2026-05-04 19:10 25.10372 51.79233 8560 ft 368 kts 159°
2026-05-04 19:10 25.07998 51.80272 7848 ft 366 kts 159°
2026-05-04 19:10 25.05665 51.81294 7153 ft 364 kts 158°
2026-05-04 19:10 25.03313 51.82302 6522 ft 360 kts 160°
2026-05-04 19:11 25.00925 51.82975 6114 ft 349 kts 173°
2026-05-04 19:11 24.98593 51.82919 6072 ft 324 kts 192°
2026-05-04 19:11 24.96564 51.82137 6057 ft 298 kts 212°
2026-05-04 19:11 24.94974 51.80761 5968 ft 286 kts 231°
2026-05-04 19:12 24.93894 51.78966 5482 ft 279 kts 252°
2026-05-04 19:12 24.95269 51.74113 4997 ft 220 kts 329°
2026-05-04 19:12 25.00389 51.71646 4511 ft 187 kts 339°
2026-05-04 19:13 25.02732 51.70623 4054 ft 185 kts 339°
2026-05-04 19:13 25.07209 51.68652 3329 ft 170 kts 339°
2026-05-04 19:13 25.11581 51.66712 2447 ft 166 kts 339°
2026-05-04 19:13 25.13778 51.65741 2232 ft 138 kts 339°
2026-05-04 19:14 25.14327 51.65499 2183 ft 127 kts 340°
2026-05-04 19:14 25.15688 51.64903 1746 ft 120 kts 340°
2026-05-04 19:14 25.17959 51.63898 1036 ft 112 kts 339°
2026-05-04 19:14 25.18696 51.63572 1094 ft 116 kts 338°
2026-05-04 19:15 25.19427 51.63207 1089 ft 115 kts 328°
2026-05-04 19:15 25.20150 51.62815 1030 ft 116 kts 328°
2026-05-04 19:15 25.20895 51.62466 935 ft 117 kts 340°
2026-05-04 19:15 25.21670 51.62191 723 ft 117 kts 342°
2026-05-04 19:16 25.22451 51.61909 584 ft 121 kts 341°
2026-05-04 19:16 25.23256 51.61543 598 ft 145 kts 335°
2026-05-04 19:16 25.24232 51.61112 424 ft 151 kts 336°
2026-05-04 19:16 25.25187 51.60696 168 ft 142 kts 336°
2026-05-04 19:17 25.26069 51.60307 28 ft 130 kts 336°
2026-05-04 19:17 25.26750 51.60010 22 ft 67 kts 340°
2026-05-04 19:17 25.26925 51.59954 21 ft 3 kts 358°
2026-05-04 19:17 25.27042 51.59963 22 ft 21 kts
2026-05-04 19:18 25.27078 51.59969 23 ft 0 kts
2026-05-04 19:18 25.27106 51.59973 27 ft 18 kts
2026-05-04 19:18 25.27280 51.59981 27 ft 30 kts 347°
2026-05-04 19:18 25.27349 51.59965 27 ft 3 kts 13°
2026-05-04 19:19 25.27391 51.60028 28 ft 12 kts 67°